Location: Newark
(11.2914°S, 14.4718°E)
Time: 08:34:25
(UTC+00:00)

deb Explorer IX - All Passes

Search period start: 24 September 2019 00:00
Search period end: 04 October 2019 00:00
Orbit: 544 x 1107 km, 38.8° (Epoch: 23 September)

Date Brightness Start Highest point End Pass type
(mag) Time Alt. Az. Time Alt. Az. Time Alt. Az.
24 Sep - 06:25:14 10° NNE 06:26:30 11° NE 06:27:46 10° ENE daylight
24 Sep - 08:08:46 10° WNW 08:12:58 66° SW 08:17:44 10° SE daylight
24 Sep - 09:59:04 10° SW 10:00:37 11° SSW 10:02:15 10° S daylight
24 Sep - 15:25:40 10° S 15:29:32 15° SSE 15:33:31 10° ESE daylight
24 Sep - 17:10:40 10° SW 17:17:44 57° SE 17:24:55 10° ENE visible
24 Sep - 18:58:41 10° WSW 19:05:10 34° NW 19:11:27 10° NNE visible
25 Sep - 06:03:16 10° NNE 06:04:39 11° NE 06:06:05 10° ENE daylight
25 Sep - 07:47:02 10° WNW 07:51:10 63° SW 07:55:46 10° SE daylight
25 Sep - 09:37:59 10° SW 09:38:47 10° SSW 09:39:36 10° SSW daylight
25 Sep - 15:03:45 10° S 15:07:33 15° SSE 15:11:30 10° ESE daylight
25 Sep - 16:48:41 10° SW 16:55:40 58° SE 17:02:53 10° ENE daylight
25 Sep - 18:36:42 10° WSW 18:43:06 33° NW 18:49:26 10° NNE visible
26 Sep - 05:41:16 10° NNE 05:42:50 12° NE 05:44:25 10° ENE daylight
26 Sep - 07:25:18 10° WNW 07:29:21 59° SW 07:33:49 10° SE daylight
26 Sep - 14:41:50 10° S 14:45:34 15° SSE 14:49:28 10° ESE daylight
26 Sep - 16:26:43 10° SW 16:33:36 59° SE 16:40:51 10° ENE daylight
26 Sep - 18:14:44 10° WSW 18:21:03 32° NW 18:27:22 10° NNE visible
27 Sep - 05:19:15 10° NNE 05:21:01 12° NE 05:22:46 10° ENE daylight
27 Sep - 07:03:33 10° WNW 07:07:34 56° SW 07:11:54 10° SE daylight
27 Sep - 14:19:58 10° S 14:23:36 15° SSE 14:27:26 10° ESE daylight
27 Sep - 16:04:46 10° SW 16:11:33 61° SE 16:18:48 10° ENE daylight
27 Sep - 17:52:48 10° WSW 17:59:00 31° NW 18:05:18 10° NNE visible
28 Sep - 04:57:14 10° NNE 04:59:12 13° NE 05:01:09 10° ENE daylight
28 Sep - 06:41:48 10° WNW 06:45:47 53° SW 06:49:59 10° SE daylight
28 Sep - 13:58:08 10° S 14:01:39 15° SSE 14:05:23 10° ESE daylight
28 Sep - 15:42:51 10° SW 15:49:31 62° SE 15:56:45 10° ENE daylight
28 Sep - 17:30:52 10° W 17:36:57 30° NW 17:43:12 10° NNE visible
29 Sep - 04:35:13 10° N 04:37:24 14° NE 04:39:32 10° ENE daylight
29 Sep - 06:20:03 10° WNW 06:24:00 50° SW 06:28:07 10° SE daylight
29 Sep - 13:36:19 10° S 13:39:43 15° SSE 13:43:19 10° ESE daylight
29 Sep - 15:20:58 10° SW 15:27:30 63° SE 15:34:40 10° ENE daylight
29 Sep - 17:08:59 10° W 17:14:56 29° NW 17:21:06 10° NNE visible
30 Sep - 04:13:12 10° N 04:15:35 15° NE 04:17:56 10° ENE visible
30 Sep - 05:58:17 10° WNW 06:02:14 47° SW 06:06:16 10° SE daylight
30 Sep - 13:14:31 10° S 13:17:47 15° SSE 13:21:16 10° ESE daylight
30 Sep - 14:59:06 10° SW 15:05:29 64° SE 15:12:37 10° ENE daylight
30 Sep - 16:47:08 10° W 16:52:55 28° NW 16:58:58 10° NNE daylight
01 Oct - 03:51:10 10° N 03:53:49 16° NE 03:56:21 10° E visible
01 Oct - 05:36:30 10° WNW 05:40:28 45° SW 05:44:26 10° SE daylight
01 Oct - 12:52:45 10° S 12:55:53 14° SSE 12:59:13 10° ESE daylight
01 Oct - 14:37:15 10° SW 14:43:29 66° SE 14:50:32 10° ENE daylight
01 Oct - 16:25:19 10° W 16:30:54 27° NW 16:36:50 10° NNE daylight
02 Oct - 03:29:08 10° N 03:32:01 17° NE 03:34:45 10° E visible
02 Oct - 05:14:43 10° WNW 05:18:43 43° SW 05:22:38 10° SE daylight
02 Oct - 12:31:00 10° S 12:33:59 14° SSE 12:37:10 10° ESE daylight
02 Oct - 14:15:25 10° SW 14:21:31 67° SE 14:28:28 10° ENE daylight
02 Oct - 16:03:31 10° W 16:08:55 26° NW 16:14:41 10° NNE daylight
03 Oct - 03:07:06 10° N 03:10:13 18° NE 03:13:10 10° E visible
03 Oct - 04:52:55 10° WNW 04:56:57 41° SW 05:00:51 10° SSE daylight
03 Oct - 12:09:16 10° S 12:12:06 14° SSE 12:15:07 10° ESE daylight
03 Oct - 13:53:37 10° SW 13:59:33 69° SE 14:06:23 10° ENE daylight
03 Oct - 15:41:45 10° W 15:46:56 25° NW 15:52:32 10° NNE daylight
